Hourly Data Report for December 19, 2020

SHEARWATER RCS
NOVA SCOTIA
Current Station Operator: ECCC - MSC

44°37'47.000" N
63°30'48.000" W
24.00 m
8205092
71264
AAW

Download Data

Hourly Data (December 2020)
Hourly Data Report for December 19, 2020
TIME
LST
Temp Definition
°C
Dew Point Definition
°C
Rel Hum Definition
%
Precip. Amount Definition
mm

Wind Dir Definition
10's deg

Wind Spd Definition
km/h
Visibility Definition
km
Stn Press Definition
kPa
Hmdx Definition


Wind Chill Definition


Weather Definition


00:00 -0.2 -3.6 78 0.0 36 23   101.49   -6 LegendNANA
01:00 -0.7 -3.6 80 0.0 34 16   101.53   -5 LegendNANA
02:00 -0.3 -2.9 83 0.0 34 22   101.57   -6 LegendNANA
03:00 -0.2 -3.5 78 0.0 35 25   101.63   -6 LegendNANA
04:00 -0.2 -3.6 78 0.0 35 22   101.66   -6 LegendNANA
05:00 -0.3 -3.5 79 0.0 35 20   101.68   -6 LegendNANA
06:00 -0.5 -3.5 80 0.0 34 19   101.73   -6 LegendNANA
07:00 -0.5 -3.8 79 0.0 34 21   101.78   -6 LegendNANA
08:00 -0.4 -3.9 77 0.0 35 23   101.84   -6 LegendNANA
09:00 -0.2 -3.8 76 0.0 35 18   101.93   -5 LegendNANA
10:00 0.1 -3.9 74 0.0 35 21   102.01     LegendNANA
11:00 0.4 -3.7 74 0.0 36 16   101.99     LegendNANA
12:00 0.7 -4.0 71 0.0 35 20   101.96     LegendNANA
13:00 1.2 -3.7 70 0.0 34 17   101.97     LegendNANA
14:00 1.2 -3.9 69 0.0 36 14   101.99     LegendNANA
15:00 0.8 -3.4 73 0.0 34 15   102.02     LegendNANA
16:00 0.5 -3.8 73 0.0 35 12   102.08     LegendNANA
17:00 0.2 -3.6 75 0.0 34 7   102.11     LegendNANA
18:00 -0.1 -4.2 74 0.0 2 8   102.13   -3 LegendNANA
19:00 -0.3 -4.0 76 0.0 36 6   102.19   -2 LegendNANA
20:00 -0.5 -4.6 74 0.0 1 8   102.22   -3 LegendNANA
21:00 -0.6 -4.5 75 0.0 33 7   102.26   -3 LegendNANA
22:00 -0.7 -4.4 76 0.0 34 6   102.27   -3 LegendNANA
23:00 -0.8 -4.5 76 0.0 34 5   102.24   -2 LegendNANA

Notes on Data Quality.

Legend

  • E = Estimated
  • M = Missing
  • NA = Not Available*
  • [empty] = Indicates an unobserved value
Date modified: